Simultaneous Nadir Overpasses (SNOs) Predictions

Prediction of SNOs between GOES-16 and NPP Satellite Orbit:

Table of predicted SNOs for the next 14.0 days since TLE Epoch: 1/6/2024
Index Date Time (GOES-16) GOES-16 Lat,Lon NPP Lat,Lon Distance(km) Time Diff (sec)
1 01/06/2024 06:11:29 -0.03, -75.21 -0.74, -71.96 369.71 80
2 01/07/2024 18:33:27 0.03, -75.22 -0.45, -77.27 233.94 80
3 01/08/2024 18:17:23 0.02, -75.22 0.59, -72.75 282.76 80
4 01/10/2024 06:39:12 -0.01, -75.22 0.60, -78.02 318.30 80
5 01/11/2024 06:17:47 -0.01, -75.22 -0.39, -73.48 198.31 80
6 01/12/2024 18:39:44 0.00, -75.24 -0.79, -78.79 405.15 80
7 01/13/2024 18:23:40 0.00, -75.24 0.20, -74.26 111.92 80
8 01/15/2024 06:45:29 -0.01, -75.26 0.93, -79.54 488.07 80
9 01/16/2024 06:24:05 -0.01, -75.27 -0.06, -75.01 29.23 80
10 01/18/2024 18:27:18 0.01, -75.31 -0.11, -75.79 54.98 80
11 01/19/2024 18:11:13 -0.00, -75.32 0.90, -71.26 463.27 80
